Location: Mountain Grove
(34.0887°N, 86.6172°W)
Time: 22:08:27
(UTC+00:00)

Meteor 1-12 Rocket - Pass Details

Date: 14 July 2020
Orbit: 856 x 925 km, 81.2° (Epoch: 08 August)

Event Time Altitude Azimuth Distance (km) Brightness Sun altitude
Exits shadow 09:38:51 - 181° (S) 3,292 6.9 -12.6°
Reaches altitude 10° 09:40:56 10° 180° (S) 2,492 6.3 -12.2°
Maximum altitude 09:46:34 75° 96° (E) 903 4.5 -11.3°
Drops below altitude 10° 09:52:20 10° 12° (NNE) 2,547 7.4 -10.3°
Sets 09:54:49 0° 11° (N) 3,500 8.2 -9.9°
